Location: Three Oaks Observatory
(31.1535°N, 83.5955°W)
Time: 08:36:25
(UTC-05:00)

FALCONSAT 3 - Pass Details

Date: 25 October 2019
Orbit: 454 x 457 km, 35.4° (Epoch: 14 November)

Event Time Altitude Azimuth Distance (km) Brightness Sun altitude
Exits shadow 06:26:03 42° 302° (WNW) 652 ? -17.3°
Maximum altitude 06:27:07 74° 16° (NNE) 472 ? -17.1°
Drops below altitude 10° 06:30:42 10° 102° (ESE) 1,576 ? -16.4°
Sets 06:32:52 0° 105° (ESE) 2,447 ? -15.9°
